Location: Beadle
(51.4667°N, 109.0000°W)
Time: 06:02:22
(UTC+00:00)

RS-15 - Visible Passes

Search period start: 28 June 2022 00:00
Search period end: 08 July 2022 00:00
Orbit: 1881 x 2163 km, 64.8° (Epoch: 27 June)

Date Brightness Start Highest point End Pass type
(mag) Time Alt. Az. Time Alt. Az. Time Alt. Az.
28 Jun 8.6 05:41:06 10° NW 05:53:29 65° NE 06:05:34 10° ESE visible
28 Jun 8.3 07:54:10 10° NW 08:06:06 58° WSW 08:16:53 13° S visible
28 Jun 9.3 10:09:12 10° WNW 10:15:38 16° W 10:22:00 10° SW visible
29 Jun 8.7 05:04:48 10° NW 05:17:03 58° NNE 05:29:01 10° ESE visible
29 Jun 8.2 07:17:59 10° NW 07:30:15 70° WSW 07:41:12 13° SSE visible
29 Jun 9.2 09:32:00 10° NW 09:40:23 22° W 09:48:36 10° SW visible
30 Jun 8.9 04:28:26 10° NW 04:40:31 52° NNE 04:52:23 10° E visible
30 Jun 8.2 06:41:50 10° NW 06:54:16 83° SW 07:05:38 12° SSE visible
30 Jun 8.9 08:55:18 10° NW 09:05:00 29° WSW 09:13:19 13° SSW visible
01 Jul 8.2 06:05:40 10° NW 06:18:10 86° NE 06:30:11 10° SE visible
01 Jul 8.7 08:18:51 10° NW 08:29:31 37° WSW 08:37:52 16° SSW visible
02 Jul 8.4 05:29:28 10° NW 05:41:58 75° NE 05:54:04 10° SE visible
02 Jul 8.5 07:42:32 10° NW 07:53:54 46° WSW 08:02:29 18° S visible
02 Jul 9.6 10:01:10 10° WNW 10:02:43 10° W 10:04:16 10° W visible
03 Jul 8.5 04:53:15 10° NW 05:05:39 66° NE 05:17:43 10° ESE visible
03 Jul 8.3 07:06:18 10° NW 07:18:11 57° WSW 07:27:11 19° S visible
03 Jul 9.4 09:21:33 10° WNW 09:27:37 15° W 09:33:36 10° WSW visible
04 Jul 8.7 04:16:57 10° NW 04:29:13 59° NNE 04:41:12 10° ESE visible
04 Jul 8.2 06:30:07 10° NW 06:42:20 68° WSW 06:51:56 18° SSE visible
04 Jul 9.3 08:44:15 10° NW 08:52:23 21° W 08:59:38 12° SW visible
05 Jul 8.2 05:53:57 10° NW 06:06:22 81° SW 06:16:44 16° SSE visible
05 Jul 9.1 08:07:29 10° NW 08:17:01 28° W 08:24:27 15° SW visible
06 Jul 8.2 05:17:48 10° NW 05:30:18 87° NE 05:41:35 13° SE visible
06 Jul 8.8 07:31:00 10° NW 07:41:32 36° WSW 07:49:19 18° SSW visible
07 Jul 8.3 04:41:36 10° NW 04:54:06 76° NE 05:06:13 10° SE visible
07 Jul 8.6 06:54:40 10° NW 07:05:57 45° WSW 07:14:13 19° S visible
